[[{"header":{"parameterUnit":"m.s-1","parameterCategory":2,"la1":30.2991,"la2":30.254,"lo1":-89.0895,"lo2":-89.0444,"dy":0.0017,"dx":0.0017,"nx":28,"ny":28,"refTime":"2024-10-20T03:00:00:Z","depth":"0","parameterNumber":2,"parameterNumberName":"U-component_of_CURRENTS"},"data":[0,0,0,0,0,0,0,0,0,0,0,0,0,0,0,0,0,0,0,0,0,0,0,0,0,0,0,0,0,0,0,0,0,0,0,0,0,0,0,0,0,0,0,0,0,0,0,0,0,0,0,0,0,0,0,0,0,0,0.3088,0.3088,0,0.305,0.3049,0.3049,0.2991,0.299,0.299,0.2989,0.2949,0.2949,0.2948,0,0,0,0,0,0,0,0,0,0,0,0,0,0.3106,0.3106,0.3088,0.3088,0.3088,0.305,0.3049,0.3048,0.2991,0.299,0.299,0.2989,0.295,0.2949,0.2948,0,0,0,0,0,0,0,0,0,0,0,0,0,0.3082,0.3106,0.3088,0.3059,0.3056,0.3051,0.3049,0.3048,0.2991,0.299,0.2989,0.2989,0.295,0.2949,0.2948,0.2961,0,0,0.2946,0.2946,0,0,0,0,0,0,0,0,0.3084,0.3081,0.3063,0.3061,0.3058,0.3028,0.3041,0.3021,0.2991,0.3011,0.2989,0.2988,0.2979,0.2976,0.2964,0.296,0.2958,0.2946,0.2945,0.2945,0.2945,0,0,0,0,0,0,0,0.3085,0.3082,0.3069,0.3063,0.306,0.3046,0.3041,0.3037,0.2997,0.3009,0.3006,0.3009,0.2977,0.2965,0.2963,0.2957,0.2946,0.2945,0.2945,0.2944,0.2969,0.297,0,0,0,0,0,0,0.3101,0.3084,0.307,0.3068,0.3074,0.3046,0.3041,0.3035,0.2997,0.2992,0.301,0.3007,0.2967,0.2964,0.2962,0.2985,0.2945,0.2944,0.2944,0.2968,0.297,0.2971,0,0,0,0,0,0,0.3101,0.3099,0.3072,0.3079,0.3075,0.3048,0.3041,0.3035,0.3024,0.2999,0.2992,0.3007,0.2966,0.2963,0.2962,0.2983,0.2944,0.2943,0.2967,0.2969,0.297,0.3026,0,0,0,0,0,0,0.3101,0.3099,0.3101,0.308,0.3076,0.3069,0.3043,0.3035,0.303,0.3025,0.2994,0.2989,0.2965,0.2964,0.2962,0.2981,0.2943,0.2965,0.2968,0.297,0.3023,0.303,0.3035,0,0,0,0,0,0.3102,0.3102,0.3101,0.31,0.3078,0.307,0.3065,0.304,0.3031,0.3027,0.3011,0.299,0.2975,0.2964,0.2961,0.2981,0.2964,0.2967,0.2969,0.302,0.3028,0.3035,0,0,0,0,0,0,0.3104,0.3097,0.3094,0.3091,0.3085,0.3062,0.3058,0.3049,0.3032,0.3031,0.3002,0.2997,0.3005,0.2989,0.2977,0.2995,0.2968,0.297,0.3007,0.3015,0.3021,0.3016,0.2942,0,0,0,0,0,0.3111,0.3111,0.3103,0.3102,0.3102,0.3085,0.308,0.3069,0.3055,0.3046,0.3026,0.3015,0.3014,0.301,0.3002,0.3013,0.3011,0.3025,0.3032,0.3037,0.3032,0.3053,0.3061,0.2979,0.2979,0.2979,0,0,0.3113,0.311,0.3109,0.3104,0.3096,0.3097,0.3078,0.3077,0.3079,0.3047,0.3042,0.3035,0.3022,0.3031,0.3034,0.3019,0.3063,0.304,0.3045,0.3036,0.3056,0.3064,0.3071,0.2981,0.298,0.298,0,0,0.3113,0.3114,0.3113,0.3114,0.3115,0.311,0.3115,0.3101,0.3095,0.3101,0.3082,0.3086,0.3079,0.307,0.3069,0.3106,0.3095,0.3111,0.3136,0.3158,0.3164,0.317,0.3195,0.3202,0.3113,0.3113,0.3113,0,0.3114,0.3114,0.3113,0.3114,0.3119,0.312,0.3124,0.3123,0.3111,0.3116,0.3107,0.3108,0.3097,0.3112,0.3123,0.312,0.3132,0.3109,0.3166,0.3171,0.3176,0.32,0.3207,0.3116,0.3116,0.3116,0.3115,0,0.3111,0.3117,0.3119,0.3124,0.313,0.3136,0.3144,0.3151,0.3155,0.3156,0.3173,0.3161,0.316,0.3167,0.3156,0.3189,0.3188,0.3173,0.3146,0.3188,0.321,0.3217,0.3121,0.312,0.3119,0.3118,0,0,0.3076,0.3112,0.3108,0.3114,0.3139,0.3133,0.3163,0.3178,0.3195,0.3198,0.3218,0.3222,0.322,0.3218,0.321,0.3227,0.328,0.3219,0.3219,0.3242,0.3338,0.3307,0.3311,0.3281,0.3282,0.3283,0.3346,0,0.3068,0.308,0.3104,0.3112,0.3116,0.3145,0.3166,0.3186,0.3214,0.3234,0.3244,0.3259,0.3241,0.3249,0.3265,0.3277,0.3298,0.3265,0.3294,0.3295,0.3261,0.3318,0.3192,0.3234,0.3352,0.3353,0.3354,0,0.3034,0.3054,0.307,0.3103,0.3107,0.3118,0.3155,0.3179,0.323,0.3257,0.3288,0.3297,0.3327,0.3304,0.3346,0.333,0.3337,0.3343,0.3346,0.3296,0.3276,0.3208,0.3242,0.3167,0.3364,0.3363,0.3363,0,0.2974,0.3013,0.3029,0.304,0.3088,0.31,0.3124,0.3177,0.3209,0.3275,0.331,0.3345,0.3367,0.3385,0.3403,0.3383,0.3452,0.3423,0.3401,0.3399,0.3284,0.327,0.3242,0.345,0.345,0.3449,0.3449,0,0.2932,0.293,0.3001,0.3,0.3011,0.3061,0.3085,0.3126,0.3206,0.3239,0.3309,0.3343,0.339,0.3432,0.3435,0.345,0.348,0.3415,0.3416,0.3302,0.329,0.3212,0.3177,0.3452,0.3451,0.3451,0.345,0,0.2837,0.2892,0.2898,0.2961,0.2977,0.2974,0.3047,0.3075,0.3169,0.3221,0.3246,0.3359,0.342,0.3466,0.3512,0.3488,0.3408,0.3498,0.3368,0.3351,0.3234,0.3207,0.307,0.2972,0.3477,0.3477,0.3476,0,0.2778,0.2786,0.2845,0.2853,0.2876,0.2902,0.2927,0.3031,0.3077,0.3211,0.3229,0.3336,0.339,0.348,0.3478,0.3503,0.3391,0.3378,0.3302,0.3221,0.3191,0.3074,0.2992,0.3182,0.318,0.3178,0.3176,0,0.2674,0.2709,0.2728,0.2752,0.2773,0.2795,0.2844,0.2886,0.3008,0.3063,0.3154,0.3223,0.3347,0.3333,0.3392,0.3381,0.3213,0.3332,0.3274,0.2982,0.2824,0.2732,0.3161,0.3156,0.3158,0.316,0.3161,0.3161,0.2588,0.2579,0.2623,0.2632,0.2656,0.267,0.2653,0.2733,0.2781,0.2839,0.2994,0.3037,0.3147,0.3225,0.3206,0.311,0.3092,0.2996,0.2981,0.2879,0.2734,0.3129,0.3107,0.3109,0.311,0.3111,0.3112,0,0.247,0.2488,0.2498,0.2499,0.2479,0.2537,0.2576,0.2549,0.2547,0.2657,0.2713,0.2794,0.2822,0.2897,0.2892,0.2776,0.2643,0.2689,0.2489,0.2433,0.2813,0.2751,0.2618,0.2618,0.2618,0.2618,0.2618,0.2618,0.2409,0.2381,0.2394,0.2323,0.2326,0.2251,0.2248,0.2235,0.2282,0.2292,0.2324,0.2423,0.2634,0.2698,0.261,0.254,0.2328,0.222,0.2217,0.2497,0.2523,0.2549,0.2482,0.2295,0.2295,0.1722,0.1718,0.1714]},{"header":{"parameterUnit":"m.s-1","parameterCategory":2,"la1":30.2991,"la2":30.254,"lo1":-89.0895,"lo2":-89.0444,"dy":0.0017,"dx":0.0017,"nx":28,"ny":28,"refTime":"2024-10-20T03:00:00:Z","depth":"0","parameterNumber":3,"parameterNumberName":"V-component_of_CURRENTS"},"data":[0,0,0,0,0,0,0,0,0,0,0,0,0,0,0,0,0,0,0,0,0,0,0,0,0,0,0,0,0,0,0,0,0,0,0,0,0,0,0,0,0,0,0,0,0,0,0,0,0,0,0,0,0,0,0,0,0,0,-0.0239,-0.0239,0,-0.0277,-0.0278,-0.0278,-0.0292,-0.0292,-0.0292,-0.0292,-0.038,-0.0382,-0.0384,0,0,0,0,0,0,0,0,0,0,0,0,0,-0.021,-0.0211,-0.0239,-0.0239,-0.024,-0.0277,-0.0278,-0.0278,-0.0292,-0.0292,-0.0292,-0.0292,-0.0379,-0.0382,-0.0385,0,0,0,0,0,0,0,0,0,0,0,0,0,-0.0233,-0.0211,-0.0239,-0.0251,-0.0253,-0.0277,-0.0278,-0.0278,-0.0293,-0.0292,-0.0292,-0.0292,-0.0378,-0.0381,-0.0385,-0.0412,0,0,-0.0396,-0.0398,0,0,0,0,0,0,0,0,-0.0232,-0.0234,-0.0249,-0.0251,-0.0252,-0.028,-0.03,-0.0325,-0.0293,-0.0278,-0.0292,-0.0292,-0.0351,-0.0357,-0.0364,-0.0416,-0.042,-0.0397,-0.0399,-0.04,-0.0401,0,0,0,0,0,0,0,-0.023,-0.0233,-0.0254,-0.025,-0.0252,-0.0266,-0.0269,-0.0305,-0.0316,-0.0279,-0.028,-0.0284,-0.0352,-0.036,-0.0366,-0.0421,-0.0396,-0.04,-0.0402,-0.0403,-0.0472,-0.0472,0,0,0,0,0,0,-0.0224,-0.0231,-0.0253,-0.0255,-0.0241,-0.0267,-0.027,-0.0271,-0.0315,-0.032,-0.0284,-0.0285,-0.0354,-0.0362,-0.0369,-0.0377,-0.04,-0.0404,-0.0406,-0.0472,-0.0472,-0.0472,0,0,0,0,0,0,-0.0223,-0.0225,-0.0252,-0.0244,-0.0249,-0.0267,-0.0269,-0.0272,-0.0277,-0.0318,-0.0325,-0.0285,-0.0354,-0.0364,-0.0392,-0.0382,-0.0405,-0.0409,-0.0473,-0.0472,-0.0472,-0.041,0,0,0,0,0,0,-0.0222,-0.0225,-0.0225,-0.0244,-0.0249,-0.0258,-0.0269,-0.0273,-0.028,-0.028,-0.0321,-0.0329,-0.0355,-0.0386,-0.0395,-0.0387,-0.0412,-0.0473,-0.0473,-0.0472,-0.0413,-0.0408,-0.0403,0,0,0,0,0,-0.0221,-0.0218,-0.0225,-0.0228,-0.0248,-0.0257,-0.0261,-0.0274,-0.028,-0.0278,-0.0304,-0.0328,-0.0388,-0.0389,-0.04,-0.0393,-0.0474,-0.0473,-0.0472,-0.0415,-0.0409,-0.0404,0,0,0,0,0,0,-0.0203,-0.022,-0.0228,-0.023,-0.024,-0.026,-0.0262,-0.0271,-0.029,-0.0293,-0.0329,-0.0339,-0.0359,-0.0386,-0.0386,-0.041,-0.0433,-0.0434,-0.0385,-0.038,-0.0375,-0.035,-0.0415,0,0,0,0,0,-0.02,-0.0205,-0.0221,-0.0223,-0.0226,-0.0244,-0.025,-0.0258,-0.0277,-0.0284,-0.0311,-0.034,-0.0365,-0.0379,-0.0409,-0.0427,-0.0442,-0.0427,-0.0422,-0.0418,-0.0405,-0.0419,-0.0414,-0.0469,-0.0469,-0.0469,0,0,-0.0195,-0.0205,-0.0208,-0.022,-0.023,-0.0222,-0.0247,-0.0252,-0.0244,-0.0294,-0.0295,-0.033,-0.0368,-0.0382,-0.0393,-0.0402,-0.0411,-0.0417,-0.0413,-0.0402,-0.0418,-0.0412,-0.0407,-0.0468,-0.0468,-0.0468,0,0,-0.0176,-0.0194,-0.0184,-0.0189,-0.0199,-0.0209,-0.0208,-0.0224,-0.023,-0.0243,-0.0271,-0.0292,-0.0338,-0.0351,-0.0367,-0.0355,-0.0388,-0.037,-0.0324,-0.0338,-0.0333,-0.0329,-0.034,-0.0337,-0.0364,-0.0364,-0.0364,0,-0.0164,-0.0157,-0.0183,-0.0169,-0.0166,-0.0198,-0.0177,-0.0189,-0.0211,-0.021,-0.0235,-0.0279,-0.0317,-0.0319,-0.0316,-0.0342,-0.0357,-0.0342,-0.033,-0.0327,-0.0324,-0.0336,-0.0334,-0.0361,-0.0361,-0.0362,-0.0362,0,-0.013,-0.0125,-0.012,-0.0112,-0.0112,-0.0105,-0.0119,-0.0124,-0.0142,-0.015,-0.0164,-0.0215,-0.0235,-0.0254,-0.0286,-0.0279,-0.0299,-0.0325,-0.0341,-0.0314,-0.0329,-0.0328,-0.0356,-0.0358,-0.0358,-0.0359,0,0,-0.0086,-0.0094,-0.0089,-0.0071,-0.008,-0.0069,-0.0065,-0.0059,-0.0035,-0.0079,-0.0055,-0.0111,-0.0137,-0.0157,-0.0199,-0.0215,-0.0216,-0.0258,-0.026,-0.0261,-0.0244,-0.0248,-0.0248,-0.0243,-0.0242,-0.0242,-0.0262,0,-0.0044,-0.0009,-0.0026,0.0016,0.0038,0.0012,0.0024,0.0023,0.0015,0.0027,-0.0027,-0.003,-0.01,-0.0109,-0.0137,-0.019,-0.0211,-0.0207,-0.0276,-0.0278,-0.0279,-0.0246,-0.0216,-0.023,-0.0261,-0.0261,-0.0261,0,0.0011,0.0025,0.0067,0.0089,0.0098,0.0113,0.0143,0.0153,0.0149,0.0139,0.0121,0.008,0.005,-0.0018,-0.0092,-0.0089,-0.016,-0.021,-0.0213,-0.0234,-0.0279,-0.0264,-0.0228,-0.0349,-0.026,-0.026,-0.026,0,0.0077,0.0101,0.0136,0.0143,0.0155,0.0171,0.0181,0.019,0.0224,0.0218,0.0238,0.0184,0.0169,0.0074,-0.004,-0.0066,-0.0119,-0.0169,-0.0239,-0.0241,-0.0235,-0.0237,-0.0316,-0.0223,-0.0223,-0.0223,-0.0222,0,0.0139,0.0175,0.0167,0.0193,0.0245,0.0234,0.0298,0.0296,0.0324,0.0384,0.0304,0.0339,0.019,0.0137,0.001,-0.0097,-0.0083,-0.0216,-0.024,-0.0214,-0.0213,-0.0336,-0.0424,-0.0223,-0.0223,-0.0223,-0.0223,0,0.021,0.0202,0.0252,0.0266,0.0277,0.0318,0.0374,0.043,0.043,0.0506,0.0506,0.0471,0.0402,0.0252,0.0116,-0.0013,-0.0199,-0.0179,-0.0136,-0.0154,-0.0339,-0.0425,-0.0538,-0.0594,-0.0254,-0.0254,-0.0254,0,0.0251,0.0277,0.0311,0.035,0.0358,0.0413,0.046,0.0479,0.0553,0.0599,0.0653,0.0606,0.0607,0.0407,0.0177,-0.0029,-0.0181,-0.0162,-0.0212,-0.0329,-0.0443,-0.051,-0.0554,-0.0184,-0.0183,-0.0183,-0.0182,0,0.0328,0.0331,0.0367,0.0438,0.0493,0.0562,0.0635,0.0707,0.0745,0.0813,0.0903,0.0909,0.0718,0.0545,0.0241,0.0079,-0.0244,-0.016,-0.0291,-0.0395,-0.0463,-0.0534,-0.0196,-0.0179,-0.0179,-0.018,-0.018,-0.018,0.0387,0.0422,0.0464,0.0538,0.0606,0.0704,0.0779,0.0878,0.0999,0.1106,0.1104,0.1143,0.0855,0.0466,0.023,-0.0188,-0.0223,-0.0323,-0.0416,-0.0471,-0.0529,-0.0179,-0.0187,-0.0188,-0.0188,-0.0188,-0.0189,0,0.0457,0.0494,0.0567,0.065,0.0738,0.0758,0.0893,0.0981,0.1137,0.1245,0.1327,0.123,0.0878,0.0481,-0.0077,-0.0379,-0.0504,-0.0558,-0.0649,-0.0681,-0.0367,-0.0367,-0.0402,-0.0402,-0.0402,-0.0402,-0.0401,-0.0401,0.0497,0.0571,0.06,0.0745,0.0812,0.0934,0.1014,0.1147,0.1257,0.1402,0.1446,0.1451,0.1159,0.0183,-0.0477,-0.0639,-0.0864,-0.0918,-0.1039,-0.0832,-0.0817,-0.0803,-0.0822,-0.0952,-0.0953,-0.1292,-0.1295,-0.1298]}],[{"header":{"parameterUnit":"m.s-1","parameterCategory":2,"la1":30.2991,"la2":30.254,"lo1":-89.0895,"lo2":-89.0444,"dy":0.0017,"dx":0.0017,"nx":28,"ny":28,"refTime":"2024-10-20T03:00:00:Z","depth":"2","parameterNumber":2,"parameterNumberName":"U-component_of_CURRENTS"},"data":[0,0,0,0,0,0,0,0,0,0,0,0,0,0,0,0,0,0,0,0,0,0,0,0,0,0,0,0,0,0,0,0,0,0,0,0,0,0,0,0,0,0,0,0,0,0,0,0,0,0,0,0,0,0,0,0,0,0,0.26,0.26,0,0.2597,0.2596,0.2596,0.2589,0.2589,0.2589,0.2589,0.2572,0.2571,0.2571,0,0,0,0,0,0,0,0,0,0,0,0,0,0.2592,0.2592,0.26,0.26,0.26,0.2597,0.2596,0.2596,0.2589,0.2589,0.2589,0.2589,0.2572,0.2571,0.2571,0,0,0,0,0,0,0,0,0,0,0,0,0,0.2591,0.2592,0.26,0.2597,0.2597,0.2597,0.2596,0.2596,0.2589,0.2589,0.2589,0.2589,0.2572,0.2571,0.2571,0.2566,0,0,0.2569,0.2568,0,0,0,0,0,0,0,0,0.2591,0.2591,0.2598,0.2598,0.2597,0.2595,0.2588,0.2586,0.2589,0.259,0.2589,0.2589,0.2579,0.2578,0.2575,0.2565,0.2565,0.2569,0.2568,0.2568,0.2568,0,0,0,0,0,0,0,0.2591,0.2591,0.2597,0.2598,0.2598,0.2594,0.2594,0.2587,0.2583,0.259,0.259,0.2592,0.2579,0.2576,0.2575,0.2564,0.2569,0.2568,0.2568,0.2567,0.2616,0.2618,0,0,0,0,0,0,0.2596,0.2591,0.2597,0.2597,0.2596,0.2594,0.2594,0.2594,0.2583,0.2582,0.2592,0.2592,0.2577,0.2575,0.2574,0.2612,0.2568,0.2567,0.2567,0.2614,0.2616,0.2618,0,0,0,0,0,0,0.2595,0.2596,0.2597,0.2595,0.2596,0.2594,0.2595,0.2594,0.2588,0.2586,0.2584,0.2587,0.2577,0.2575,0.2576,0.261,0.2567,0.2566,0.2612,0.2615,0.2617,0.266,0,0,0,0,0,0,0.2595,0.2596,0.2592,0.2596,0.2596,0.2592,0.2595,0.2594,0.259,0.259,0.258,0.2579,0.2577,0.2577,0.2575,0.2608,0.2566,0.261,0.2613,0.2616,0.2656,0.2664,0.267,0,0,0,0,0,0.2595,0.2587,0.2592,0.2592,0.2593,0.2592,0.2591,0.259,0.259,0.2584,0.2588,0.2579,0.2597,0.2577,0.2574,0.2608,0.2609,0.2613,0.2616,0.2653,0.2662,0.267,0,0,0,0,0,0,0.2571,0.2586,0.2591,0.2586,0.2589,0.2592,0.2599,0.2587,0.2585,0.26,0.2583,0.2582,0.2607,0.2597,0.2575,0.2635,0.2608,0.2612,0.2638,0.2646,0.2652,0.2656,0.2565,0,0,0,0,0,0.2569,0.2586,0.2582,0.2589,0.2593,0.2595,0.2594,0.2598,0.26,0.2599,0.2599,0.261,0.2622,0.2622,0.2636,0.2648,0.2649,0.2675,0.2682,0.2688,0.2691,0.2719,0.2728,0.2631,0.2631,0.2631,0,0,0.257,0.258,0.259,0.2588,0.2603,0.2606,0.2595,0.2611,0.2619,0.2599,0.2622,0.2633,0.2632,0.2662,0.2673,0.2654,0.272,0.2693,0.2697,0.2698,0.2724,0.2733,0.2741,0.2633,0.2633,0.2632,0,0,0.2578,0.2588,0.2599,0.2603,0.2622,0.2627,0.2628,0.2638,0.2648,0.2661,0.2668,0.269,0.2697,0.2713,0.2716,0.2763,0.2758,0.2779,0.2806,0.2833,0.2841,0.2847,0.287,0.2879,0.2776,0.2776,0.2776,0,0.2576,0.2587,0.26,0.2605,0.262,0.2634,0.2642,0.2651,0.2663,0.268,0.2678,0.2723,0.2723,0.2755,0.2782,0.2778,0.2791,0.2771,0.284,0.2847,0.2853,0.2875,0.2884,0.2779,0.2778,0.2778,0.2778,0,0.2577,0.2595,0.261,0.2631,0.2639,0.2663,0.2676,0.2699,0.2719,0.2728,0.2775,0.2785,0.2807,0.2823,0.2813,0.2868,0.2863,0.2848,0.2815,0.2865,0.2885,0.2894,0.2782,0.2781,0.2781,0.278,0,0,0.2563,0.2603,0.2612,0.2621,0.2663,0.2661,0.2707,0.2734,0.2759,0.2789,0.2823,0.2857,0.2872,0.2879,0.2884,0.2909,0.2968,0.2902,0.2902,0.2916,0.3032,0.2986,0.299,0.2966,0.2968,0.2969,0.3031,0,0.2568,0.2582,0.2611,0.2636,0.2642,0.2688,0.2718,0.2749,0.2791,0.2829,0.2861,0.2899,0.2888,0.2915,0.2938,0.2967,0.2991,0.2953,0.2988,0.2989,0.2935,0.2999,0.2762,0.2793,0.3039,0.304,0.3041,0,0.2547,0.2567,0.2589,0.2634,0.2643,0.2667,0.2731,0.2761,0.2829,0.2867,0.2918,0.2941,0.2996,0.2978,0.3041,0.3019,0.3032,0.3045,0.3047,0.2993,0.2959,0.2782,0.2799,0.3055,0.3053,0.3052,0.3052,0,0.2496,0.2545,0.2567,0.2581,0.2632,0.2668,0.2709,0.2777,0.2816,0.2905,0.2945,0.3002,0.3044,0.3072,0.3103,0.3082,0.3167,0.3135,0.3102,0.3099,0.2897,0.2873,0.3176,0.3176,0.3175,0.3175,0.3175,0,0.2469,0.2481,0.2548,0.2551,0.2585,0.2639,0.2693,0.2747,0.2841,0.288,0.296,0.3003,0.3073,0.3122,0.3132,0.3151,0.319,0.3123,0.3117,0.2907,0.2885,0.3105,0.3096,0.3178,0.3177,0.3177,0.3176,0,0.2399,0.2444,0.246,0.2531,0.2555,0.2579,0.2678,0.2713,0.2817,0.2881,0.2915,0.3028,0.3098,0.3152,0.3216,0.3188,0.3212,0.3203,0.2958,0.2922,0.3116,0.3108,0.3172,0.3171,0.3171,0.317,0.3169,0,0.2361,0.2366,0.2429,0.2443,0.2484,0.2538,0.2575,0.2689,0.2735,0.2875,0.2895,0.3012,0.306,0.3155,0.315,0.3173,0.3214,0.2949,0.2861,0.313,0.3119,0.3113,0.3107,0.2612,0.2607,0.2603,0.26,0,0.2293,0.2324,0.2341,0.2374,0.2414,0.2446,0.2516,0.2546,0.267,0.2729,0.2811,0.2876,0.2991,0.292,0.2978,0.2949,0.2928,0.2866,0.3213,0.2657,0.2609,0.2596,0.2607,0.2563,0.2566,0.2569,0.2571,0.2573,0.2244,0.2242,0.227,0.2293,0.2327,0.2339,0.2332,0.2404,0.2447,0.2504,0.2639,0.2654,0.2719,0.269,0.2624,0.2578,0.2775,0.2632,0.2641,0.2656,0.2587,0.2541,0.2469,0.2472,0.2475,0.2477,0.2479,0,0.2164,0.2173,0.2186,0.2191,0.218,0.2242,0.2268,0.2237,0.2229,0.2316,0.2366,0.2215,0.2199,0.226,0.2146,0.2167,0.2115,0.2063,0.1962,0.2003,0.2038,0.1933,0.1644,0.1641,0.1638,0.1635,0,0,0.2123,0.2094,0.2095,0.2038,0.205,0.1994,0.1985,0.1957,0.1979,0.1941,0.1934,0.2098,0.2203,0.1883,0.1861,0.1728,0.1841,0.1661,0.234,0.2262,0.2293,0.2388,0.2277,0,0,0,0,0]},{"header":{"parameterUnit":"m.s-1","parameterCategory":2,"la1":30.2991,"la2":30.254,"lo1":-89.0895,"lo2":-89.0444,"dy":0.0017,"dx":0.0017,"nx":28,"ny":28,"refTime":"2024-10-20T03:00:00:Z","depth":"2","parameterNumber":3,"parameterNumberName":"V-component_of_CURRENTS"},"data":[0,0,0,0,0,0,0,0,0,0,0,0,0,0,0,0,0,0,0,0,0,0,0,0,0,0,0,0,0,0,0,0,0,0,0,0,0,0,0,0,0,0,0,0,0,0,0,0,0,0,0,0,0,0,0,0,0,0,0.0185,0.0184,0,0.013,0.0129,0.0128,0.0085,0.0084,0.0084,0.0084,0.0009,0.0007,0.0006,0,0,0,0,0,0,0,0,0,0,0,0,0,0.0214,0.0214,0.0185,0.0184,0.0184,0.013,0.0129,0.0128,0.0085,0.0084,0.0084,0.0084,0.001,0.0008,0.0006,0,0,0,0,0,0,0,0,0,0,0,0,0,0.0183,0.0213,0.0185,0.0157,0.0154,0.013,0.0129,0.0128,0.0085,0.0084,0.0084,0.0083,0.001,0.0008,0.0005,-0.0002,0,0,-0.0003,-0.0004,0,0,0,0,0,0,0,0,0.0185,0.0182,0.0161,0.0158,0.0155,0.0115,0.0112,0.0084,0.0085,0.0109,0.0084,0.0083,0.0044,0.0039,0.0027,-0.0005,-0.0009,-0.0003,-0.0004,-0.0006,-0.0006,0,0,0,0,0,0,0,0.0187,0.0184,0.0161,0.0161,0.0157,0.0134,0.0129,0.0106,0.0078,0.0107,0.0104,0.0101,0.0042,0.003,0.0025,-0.001,-0.0003,-0.0005,-0.0007,-0.0008,-0.0064,-0.0064,0,0,0,0,0,0,0.0199,0.0186,0.0163,0.016,0.0171,0.0134,0.0128,0.0127,0.0079,0.0072,0.0101,0.0099,0.0035,0.0028,0.0022,0.0016,-0.0005,-0.0008,-0.0009,-0.0064,-0.0064,-0.0064,0,0,0,0,0,0,0.02,0.0198,0.0165,0.0173,0.0167,0.0134,0.0133,0.0126,0.0117,0.0075,0.0067,0.0099,0.0034,0.0026,0.0011,0.0013,-0.0009,-0.0011,-0.0064,-0.0064,-0.0064,-0.0,0,0,0,0,0,0,0.0201,0.0199,0.0203,0.0174,0.0167,0.0161,0.0133,0.0125,0.0116,0.0113,0.0071,0.0063,0.0033,0.0015,0.0008,0.0009,-0.0013,-0.0064,-0.0064,-0.0064,-0.0002,0.0002,0.0006,0,0,0,0,0,0.0203,0.0213,0.0203,0.02,0.0174,0.0162,0.0156,0.013,0.0117,0.0119,0.0091,0.0064,0.001,0.0014,0.0006,0.0005,-0.0064,-0.0064,-0.0064,-0.0004,0.0001,0.0006,0,0,0,0,0,0,0.0231,0.0209,0.0197,0.0202,0.0187,0.0155,0.015,0.0137,0.0116,0.0108,0.0072,0.0063,0.0046,0.0019,0.0024,-0.0012,-0.0034,-0.0036,0.0014,0.0019,0.0023,0.0036,-0.0016,0,0,0,0,0,0.0239,0.0235,0.0216,0.0216,0.0211,0.0183,0.0174,0.0157,0.0135,0.0125,0.0095,0.0062,0.004,0.0026,-0.0003,-0.0015,-0.0041,-0.0024,-0.002,-0.0016,-0.0012,-0.0043,-0.0041,-0.0063,-0.0063,-0.0063,0,0,0.0247,0.0235,0.0232,0.0221,0.0202,0.0206,0.0176,0.0164,0.0167,0.012,0.0109,0.0076,0.004,0.0023,0.0012,0.0002,-0.0023,-0.0016,-0.0012,-0.001,-0.0043,-0.0041,-0.0039,-0.0063,-0.0063,-0.0063,0,0,0.0265,0.0253,0.0258,0.0252,0.0233,0.0219,0.0222,0.0194,0.0181,0.017,0.0135,0.011,0.0072,0.0047,0.0031,0.0041,0.0,0.0026,0.0058,0.0027,0.0029,0.003,0.0006,0.0004,0.0028,0.0028,0.0028,0,0.0278,0.0284,0.0259,0.0267,0.0266,0.0232,0.0246,0.0231,0.0202,0.0197,0.0174,0.0119,0.0085,0.0072,0.007,0.0051,0.0028,0.0046,0.0034,0.0035,0.0035,0.0009,0.0006,0.0031,0.0031,0.003,0.003,0,0.0306,0.0309,0.0312,0.0311,0.0309,0.0311,0.0294,0.0285,0.0263,0.0246,0.0223,0.0173,0.0142,0.0123,0.01,0.0084,0.0066,0.0045,0.0026,0.0041,0.0012,0.0009,0.0035,0.0034,0.0033,0.0033,0,0,0.0333,0.0333,0.0333,0.0345,0.0333,0.0338,0.0339,0.0338,0.0349,0.0301,0.0305,0.0252,0.0218,0.0197,0.0157,0.0126,0.0105,0.0089,0.0086,0.0073,0.0041,0.0031,0.0026,0.0082,0.0082,0.0081,0.0023,0,0.0362,0.0392,0.0381,0.041,0.0426,0.0402,0.0413,0.0403,0.0388,0.0381,0.0321,0.0306,0.0251,0.0235,0.0196,0.0131,0.0097,0.0123,0.002,0.0018,0.0014,0.0022,0.0045,-0.0005,0.0019,0.0018,0.0018,0,0.0396,0.0412,0.0447,0.0467,0.0472,0.0482,0.0497,0.0505,0.0485,0.0471,0.0437,0.0391,0.034,0.0288,0.0184,0.0203,0.0128,0.007,0.0066,0.0032,0.0001,-0.0019,-0.0013,0.0011,0.0012,0.0012,0.0012,0,0.0437,0.046,0.0491,0.0497,0.0513,0.0521,0.0529,0.0527,0.0553,0.0528,0.0535,0.0462,0.0431,0.0327,0.0204,0.0194,0.0088,0.0058,-0.0023,-0.0025,-0.0038,-0.004,-0.002,-0.002,-0.002,-0.002,-0.0019,0,0.0476,0.05,0.051,0.053,0.0572,0.0565,0.0612,0.0608,0.0622,0.0661,0.0585,0.0593,0.0439,0.0359,0.0234,0.0101,0.0109,-0.0015,-0.004,-0.0015,-0.0014,-0.0029,-0.0029,-0.0022,-0.0021,-0.0021,-0.0021,0,0.051,0.0516,0.0558,0.0581,0.0592,0.0622,0.0673,0.0715,0.0712,0.0758,0.0752,0.0694,0.0593,0.0436,0.0272,0.0153,0.0018,-0.0035,0.0007,-0.0012,-0.0084,-0.008,-0.0129,-0.013,-0.0131,-0.0131,-0.0132,0,0.053,0.0554,0.0599,0.0632,0.0641,0.0688,0.073,0.0754,0.0808,0.0826,0.0856,0.0775,0.0736,0.0497,0.0274,0.0059,0.0023,-0.007,-0.0092,-0.0075,-0.0095,-0.009,-0.0086,-0.0086,-0.0086,-0.0086,-0.0086,0,0.057,0.0583,0.0619,0.0687,0.0734,0.0801,0.0861,0.0917,0.0951,0.099,0.1024,0.0993,0.0771,0.0566,0.0269,0.0121,-0.0034,-0.0078,-0.0072,-0.0058,-0.0038,-0.0056,-0.0053,-0.0087,-0.0087,-0.0087,-0.0086,-0.0086,0.06,0.0631,0.068,0.0744,0.0808,0.0894,0.0956,0.1032,0.1119,0.117,0.1146,0.1103,0.0867,0.0499,0.0241,-0.0036,-0.0025,-0.0129,-0.0127,-0.0126,-0.0106,-0.0088,-0.0142,-0.0143,-0.0143,-0.0143,-0.0143,0,0.0635,0.0672,0.0737,0.0815,0.0891,0.092,0.1033,0.1097,0.1197,0.1243,0.1266,0.1048,0.0822,0.0543,0.014,-0.0098,-0.0119,-0.0178,-0.0151,-0.0148,-0.0146,-0.0127,-0.017,-0.0171,-0.0171,-0.0172,0,0,0.0654,0.0715,0.0746,0.0864,0.0925,0.103,0.1095,0.1185,0.1244,0.1286,0.1268,0.1229,0.0904,0.0611,0.0289,0.0056,0.0004,0.0007,0.0055,0.0128,0.0133,-0.0089,-0.0053,0,0,0,0,0]}],[{"header":{"parameterUnit":"m.s-1","parameterCategory":2,"la1":30.2991,"la2":30.254,"lo1":-89.0895,"lo2":-89.0444,"dy":0.0017,"dx":0.0017,"nx":28,"ny":28,"refTime":"2024-10-20T03:00:00:Z","depth":"4","parameterNumber":2,"parameterNumberName":"U-component_of_CURRENTS"},"data":[0,0,0,0,0,0,0,0,0,0,0,0,0,0,0,0,0,0,0,0,0,0,0,0,0,0,0,0,0,0,0,0,0,0,0,0,0,0,0,0,0,0,0,0,0,0,0,0,0,0,0,0,0,0,0,0,0,0,0.1505,0.1506,0,0.1564,0.1564,0.1565,0.1615,0.1615,0.1616,0.1617,0.1685,0.1687,0.1688,0,0,0,0,0,0,0,0,0,0,0,0,0,0.1429,0.143,0.1505,0.1506,0.1507,0.1563,0.1564,0.1565,0.1614,0.1615,0.1616,0.1617,0.1685,0.1686,0.1688,0,0,0,0,0,0,0,0,0,0,0,0,0,0.147,0.143,0.1505,0.154,0.1544,0.1563,0.1564,0.1565,0.1614,0.1615,0.1616,0.1617,0.1685,0.1686,0.1688,0.1677,0,0,0.1693,0.1694,0,0,0,0,0,0,0,0,0.1468,0.1473,0.1534,0.1537,0.1542,0.1584,0.1563,0.1604,0.1614,0.1586,0.1617,0.1618,0.1653,0.1657,0.1663,0.168,0.1683,0.1693,0.1695,0.1695,0.1696,0,0,0,0,0,0,0,0.1465,0.147,0.1526,0.1535,0.154,0.155,0.1557,0.157,0.1611,0.1588,0.1592,0.1601,0.1655,0.1661,0.1665,0.1684,0.1693,0.1695,0.1696,0.1697,0.181,0.1812,0,0,0,0,0,0,0.1461,0.1468,0.1525,0.1528,0.1509,0.1551,0.1558,0.1568,0.1611,0.1619,0.16,0.1604,0.1658,0.1663,0.1668,0.1756,0.1695,0.1697,0.1698,0.1808,0.181,0.1812,0,0,0,0,0,0,0.1459,0.1465,0.1522,0.1501,0.1509,0.1551,0.1562,0.1569,0.1612,0.1621,0.1629,0.1641,0.1659,0.1666,0.1717,0.1755,0.1698,0.1699,0.1805,0.1808,0.1811,0.1868,0,0,0,0,0,0,0.1456,0.1464,0.1484,0.15,0.151,0.1558,0.1561,0.1569,0.1615,0.162,0.1657,0.1663,0.166,0.1714,0.1718,0.1756,0.1701,0.1803,0.1807,0.181,0.1863,0.1872,0.188,0,0,0,0,0,0.1453,0.147,0.1485,0.1493,0.1532,0.1559,0.1565,0.1597,0.1616,0.1639,0.1671,0.1663,0.1741,0.1717,0.1721,0.1761,0.1801,0.1806,0.181,0.186,0.187,0.188,0,0,0,0,0,0,0.1449,0.1477,0.1494,0.152,0.1551,0.1569,0.1598,0.1617,0.1659,0.1676,0.1684,0.1692,0.1751,0.175,0.1724,0.1806,0.1771,0.1777,0.1808,0.1818,0.1826,0.1822,0.1702,0,0,0,0,0,0.1457,0.148,0.1506,0.1533,0.1551,0.1582,0.1604,0.1626,0.1656,0.1678,0.1704,0.1736,0.1766,0.1789,0.181,0.1852,0.1854,0.1883,0.1891,0.1898,0.1899,0.1942,0.1953,0.1827,0.1827,0.1827,0,0,0.1463,0.1483,0.1497,0.1535,0.1563,0.1592,0.1599,0.1642,0.1675,0.1677,0.1742,0.1767,0.1784,0.1834,0.1861,0.1843,0.1937,0.1903,0.1909,0.1906,0.1947,0.1959,0.197,0.183,0.1829,0.1829,0,0,0.1475,0.1508,0.153,0.1558,0.1605,0.1623,0.1644,0.1685,0.1718,0.1772,0.1788,0.1838,0.1882,0.1903,0.1917,0.1984,0.1979,0.2,0.2039,0.2081,0.2091,0.21,0.2121,0.2131,0.2004,0.2004,0.2005,0,0.1487,0.1513,0.1542,0.1572,0.16,0.1641,0.1672,0.1707,0.1762,0.1792,0.1805,0.1894,0.1912,0.197,0.1998,0.2003,0.202,0.1997,0.209,0.2099,0.2108,0.2127,0.2137,0.2008,0.2007,0.2007,0.2007,0,0.1503,0.1541,0.1561,0.161,0.1644,0.1681,0.1726,0.1775,0.1821,0.1851,0.1933,0.1967,0.2018,0.2039,0.204,0.2114,0.2105,0.2094,0.2061,0.2124,0.214,0.215,0.2012,0.2011,0.201,0.2009,0,0,0.1492,0.1557,0.1571,0.16,0.1669,0.1694,0.176,0.1819,0.1871,0.1934,0.2,0.2062,0.2091,0.211,0.2129,0.2169,0.2245,0.2164,0.2165,0.2177,0.2334,0.2185,0.2182,0.2258,0.226,0.2261,0.2321,0,0.1504,0.155,0.1587,0.1648,0.1677,0.1738,0.1793,0.1856,0.1919,0.1994,0.2048,0.212,0.2115,0.2161,0.22,0.224,0.2275,0.2229,0.2278,0.2279,0.2132,0.2189,0.2268,0.2329,0.2331,0.2333,0.2334,0,0.1507,0.154,0.159,0.1666,0.1688,0.1736,0.1833,0.189,0.1994,0.2049,0.2127,0.2172,0.2254,0.2242,0.2331,0.2307,0.2326,0.2346,0.2348,0.2193,0.2148,0.2254,0.2352,0.235,0.2349,0.2348,0.2347,0,0.1468,0.1545,0.1583,0.161,0.1699,0.1748,0.1809,0.1911,0.1969,0.2098,0.2155,0.2247,0.2314,0.2358,0.2399,0.2382,0.2483,0.2458,0.2338,0.2327,0.2417,0.2406,0.2515,0.2515,0.2515,0.2515,0.2514,0,0.1448,0.1489,0.1575,0.1595,0.166,0.1736,0.1823,0.19,0.2016,0.2082,0.2186,0.2245,0.2351,0.2413,0.2431,0.2411,0.2509,0.2348,0.2335,0.244,0.2431,0.2424,0.2413,0.2517,0.2516,0.2516,0.2515,0,0.1396,0.1452,0.1504,0.1603,0.1641,0.1692,0.1822,0.1877,0.2002,0.2096,0.2143,0.2274,0.2349,0.2422,0.2505,0.2437,0.2445,0.2414,0.2525,0.2517,0.2252,0.2243,0.2275,0.227,0.2266,0.2263,0.226,0,0.1366,0.1387,0.1495,0.1529,0.1582,0.167,0.1727,0.186,0.1915,0.2085,0.2112,0.2241,0.2309,0.2298,0.2389,0.2409,0.2382,0.2364,0.2295,0.2244,0.223,0.2227,0.2224,0.2253,0.2252,0.2251,0.225,0,0.131,0.1363,0.1404,0.1472,0.1537,0.1596,0.1689,0.1712,0.1858,0.1987,0.2031,0.2073,0.2151,0.2203,0.224,0.2249,0.2363,0.2322,0.2329,0.2264,0.2219,0.2208,0.2209,0.2237,0.2239,0.224,0.2241,0,0.1275,0.1288,0.1349,0.1398,0.1473,0.1496,0.1555,0.161,0.1676,0.1852,0.1864,0.1998,0.2126,0.2121,0.2155,0.2155,0.2116,0.2037,0.2058,0.2074,0.1981,0.1893,0.1803,0,0,0,0,0,0.1231,0.1231,0.1269,0.1306,0.1374,0.1418,0.1515,0.1574,0.1707,0.1689,0.1769,0.183,0.1879,0.1951,0.191,0.2073,0.2129,0.2017,0.205,0.216,0.2176,0.2085,0,0,0,0,0,0,0.1199,0.1231,0.1233,0.1219,0.1232,0.1288,0.1345,0.1433,0.1426,0.157,0.1606,0.1719,0.1796,0.1886,0.1876,0.1899,0.1881,0.2105,0.21,0.2151,0.2166,0.2178,0.2091,0,0,0,0,0]},{"header":{"parameterUnit":"m.s-1","parameterCategory":2,"la1":30.2991,"la2":30.254,"lo1":-89.0895,"lo2":-89.0444,"dy":0.0017,"dx":0.0017,"nx":28,"ny":28,"refTime":"2024-10-20T03:00:00:Z","depth":"4","parameterNumber":3,"parameterNumberName":"V-component_of_CURRENTS"},"data":[0,0,0,0,0,0,0,0,0,0,0,0,0,0,0,0,0,0,0,0,0,0,0,0,0,0,0,0,0,0,0,0,0,0,0,0,0,0,0,0,0,0,0,0,0,0,0,0,0,0,0,0,0,0,0,0,0,0,0.027,0.027,0,0.0237,0.0237,0.0236,0.0213,0.0213,0.0213,0.0212,0.0159,0.0158,0.0156,0,0,0,0,0,0,0,0,0,0,0,0,0,0.0281,0.0281,0.027,0.027,0.027,0.0237,0.0237,0.0236,0.0213,0.0213,0.0213,0.0212,0.0159,0.0158,0.0156,0,0,0,0,0,0,0,0,0,0,0,0,0,0.0264,0.0281,0.027,0.0255,0.0253,0.0237,0.0237,0.0236,0.0213,0.0213,0.0213,0.0212,0.016,0.0158,0.0156,0.0147,0,0,0.015,0.0149,0,0,0,0,0,0,0,0,0.0265,0.0264,0.0257,0.0256,0.0254,0.023,0.0221,0.0206,0.0213,0.0227,0.0212,0.0212,0.0181,0.0178,0.0171,0.0145,0.0142,0.015,0.0149,0.0148,0.0147,0,0,0,0,0,0,0,0.0267,0.0265,0.0256,0.0257,0.0255,0.0238,0.0236,0.0218,0.0205,0.0226,0.0224,0.0222,0.018,0.0173,0.0169,0.0142,0.015,0.0148,0.0147,0.0146,0.0111,0.0111,0,0,0,0,0,0,0.0274,0.0266,0.0257,0.0255,0.026,0.0239,0.0236,0.0237,0.0205,0.0201,0.0222,0.0221,0.0176,0.0172,0.0167,0.0169,0.0148,0.0146,0.0145,0.0111,0.0111,0.0111,0,0,0,0,0,0,0.0275,0.0274,0.0259,0.0261,0.0258,0.0239,0.024,0.0236,0.0232,0.0203,0.0198,0.0222,0.0176,0.017,0.0162,0.0166,0.0145,0.0143,0.011,0.0111,0.0111,0.0162,0,0,0,0,0,0,0.0275,0.0274,0.0279,0.0261,0.0258,0.0256,0.024,0.0236,0.0231,0.0229,0.0201,0.0196,0.0175,0.0165,0.016,0.0163,0.0142,0.011,0.011,0.0111,0.016,0.0164,0.0168,0,0,0,0,0,0.0276,0.0284,0.028,0.0278,0.0265,0.0256,0.0253,0.0238,0.0232,0.0233,0.0218,0.0197,0.0164,0.0164,0.0158,0.016,0.011,0.011,0.0111,0.0158,0.0163,0.0168,0,0,0,0,0,0,0.0292,0.0282,0.0277,0.0282,0.0272,0.0253,0.0253,0.0243,0.0231,0.0231,0.0203,0.0197,0.019,0.0169,0.017,0.0151,0.0132,0.0131,0.017,0.0174,0.0178,0.0184,0.014,0,0,0,0,0,0.0298,0.0303,0.0288,0.0294,0.0291,0.0273,0.0268,0.0258,0.0246,0.024,0.0222,0.0202,0.0187,0.0177,0.016,0.0151,0.0123,0.0147,0.0151,0.0154,0.0155,0.012,0.012,0.0113,0.0113,0.0113,0,0,0.0307,0.0302,0.0305,0.0297,0.0289,0.0291,0.027,0.0267,0.0269,0.0236,0.0236,0.0216,0.0188,0.0181,0.0175,0.0164,0.0142,0.0155,0.0158,0.0156,0.012,0.0121,0.0122,0.0113,0.0113,0.0113,0,0,0.0325,0.0322,0.033,0.0325,0.0316,0.0307,0.0309,0.0293,0.0287,0.0283,0.0261,0.0246,0.0223,0.0203,0.0191,0.0203,0.0165,0.0196,0.0219,0.0185,0.0186,0.0186,0.0156,0.0152,0.0197,0.0197,0.0197,0,0.0334,0.0344,0.0331,0.0335,0.0339,0.0318,0.0328,0.0319,0.0303,0.0302,0.029,0.0256,0.0232,0.022,0.0225,0.0212,0.0188,0.0206,0.0191,0.019,0.0189,0.0158,0.0154,0.0199,0.0199,0.0199,0.0199,0,0.0354,0.0364,0.0369,0.0371,0.0372,0.0378,0.0367,0.0365,0.0356,0.0344,0.0332,0.0298,0.0277,0.0265,0.0249,0.0233,0.0217,0.0202,0.0181,0.0193,0.0159,0.0154,0.0203,0.0202,0.0201,0.0201,0,0,0.0369,0.0381,0.0384,0.0396,0.0394,0.0398,0.0405,0.0405,0.0412,0.0386,0.0387,0.0355,0.0333,0.0316,0.0288,0.0257,0.023,0.0231,0.0228,0.0204,0.0159,0.0146,0.0139,0.0213,0.0212,0.0212,0.014,0,0.0389,0.0413,0.0413,0.0441,0.0453,0.0445,0.0455,0.0452,0.0445,0.044,0.0397,0.0388,0.0353,0.0344,0.0308,0.0252,0.0218,0.0251,0.0147,0.0144,0.0134,0.0133,0.021,0.0136,0.0135,0.0134,0.0133,0,0.0405,0.0422,0.0454,0.048,0.0485,0.0499,0.0516,0.0525,0.0511,0.0504,0.048,0.0446,0.0403,0.0369,0.0273,0.0297,0.0233,0.0183,0.0179,0.0145,0.0122,0.0119,0.0123,0.0124,0.0124,0.0125,0.0126,0,0.0422,0.0451,0.0482,0.049,0.0513,0.0528,0.0543,0.0545,0.0563,0.0546,0.055,0.0489,0.0462,0.0374,0.0273,0.0272,0.0161,0.0145,0.007,0.0069,0.0079,0.008,0.007,0.007,0.007,0.007,0.0071,0,0.0439,0.0464,0.0494,0.0511,0.0551,0.0557,0.06,0.0602,0.0615,0.0637,0.0587,0.0579,0.0462,0.0385,0.0286,0.0164,0.0167,0.0072,0.0048,0.0103,0.0107,0.0075,0.0077,0.0068,0.0068,0.0069,0.0069,0,0.0445,0.0466,0.0506,0.0544,0.0561,0.059,0.0647,0.0676,0.0682,0.0707,0.0704,0.0645,0.0546,0.0422,0.0277,0.0188,0.0069,0.0023,0.0096,0.0078,-0.0005,-0.0,-0.0068,-0.0069,-0.007,-0.0071,-0.0071,0,0.0449,0.0471,0.0532,0.0564,0.0585,0.0636,0.0674,0.0705,0.074,0.0745,0.0754,0.0676,0.0617,0.0408,0.0273,0.0079,0.0047,-0.002,-0.0021,-0.0004,-0.002,-0.0014,-0.0008,-0.0073,-0.0073,-0.0073,-0.0073,0,0.0459,0.0484,0.0519,0.0587,0.0637,0.0695,0.0751,0.0779,0.0811,0.082,0.079,0.0685,0.0571,0.0409,0.0259,0.0119,0.0021,-0.003,-0.0029,-0.0031,-0.0011,-0.0025,-0.0018,-0.0077,-0.0076,-0.0076,-0.0076,0,0.0469,0.0493,0.0545,0.0602,0.0669,0.0727,0.0761,0.0796,0.0828,0.083,0.0818,0.07,0.0636,0.043,0.0293,0.0153,0.0111,0.0055,0.005,0.0052,0.0105,0.0149,0.011,0,0,0,0,0,0.0473,0.0501,0.0557,0.062,0.0689,0.073,0.0798,0.0828,0.0857,0.0841,0.0832,0.0727,0.0525,0.0445,0.0302,0.0263,0.008,0.0088,0.0011,-0.0094,-0.009,-0.005,0,0,0,0,0,0,0.0475,0.0525,0.055,0.0625,0.0671,0.075,0.0795,0.0819,0.0812,0.0819,0.072,0.0677,0.0488,0.0607,0.0296,0.0255,0.0181,0.0002,-0.0002,-0.0096,-0.0093,-0.009,-0.0047,0,0,0,0,0]}]]